weather.gov     
National Weather Service

Regional Weather Roundup
NWS Homepage
This page is being discontinued on March 12, 2014.
The same data is available at this site. Please update your bookmarks.
Thank you, and we apologize for the inconvenience.
Please send an email to SR-SRH.Webmaster@noaa.gov with any concerns.


Current Version
Previous Version:    01  02  03  04  05  06  07  08  09  10  11  12  13  14  15  16  17  18  19  20  21  22  23  24  25  26  27  28  29  30  
   31  32  33  34  35  36  37  38  39  40  41  42  43  44  45  46  47  48  49  50  51  52  53  54  
[Printable]
198
ASUS44 KMEG 280410
RWRTN
TENNESSEE HOURLY STATE WEATHER ROUNDUP
NATIONAL WEATHER SERVICE MEMPHIS TN
1100 PM CDT SUN JUL 27 2014

TNZ002-004-019-021-049-052-054-088>092-280500-
WEST TENNESSEE

CITY           SKY/WX    TMP DP  RH WIND       PRES   REMARKS
MEMPHIS INTL   PTCLDY    85  77  77 W3        29.95S HX  95
NWS MEMPHIS      N/A     84 N/A N/A MISG        N/A
JACKSON        CLEAR     82  76  81 W7        29.93S
DYERSBURG      CLEAR     81  70  69 W5        29.94R
UNION CITY     CLEAR     79  72  78 W6        29.91S
PARIS          PTCLDY    77  73  87 W3        29.92S
LEXINGTON      MOCLDY    81  77  89 W3        29.92S
SAVANNAH       PTCLDY    82  81  97 SW5       29.94S HX  94
$$

TNZ008-025-027-028-033-062-065-066-280500-
NORTH MIDDLE TENNESSEE

CITY           SKY/WX    TMP DP  RH WIND       PRES   REMARKS
NASHVILLE      CLOUDY    75  73  93 CALM      29.91R
DICKSON        CLOUDY    73  70  88 W5        29.92S
PORTLAND       MOCLDY    72  70  94 S3        29.88R
CLARKSVILLE    CLEAR     82  63  52 NW14      29.90R
LEBANON        CLOUDY    72  69  90 W3        29.88F
SMYRNA         CLOUDY    75  74  97 N9        29.90S
COOKEVILLE     PTCLDY    73  72  94 W3        29.92F
LIVINGSTON       N/A     78  68  71 W9        29.92
GALLATIN       CLOUDY    72  72 100 CALM      29.89F
CROSSVILLE     TSTM      70  66  87 SW10G26   29.97R FOG
$$

TNZ061-075-076-078-094-096-097-280500-
SOUTH MIDDLE TENNESSEE

CITY           SKY/WX    TMP DP  RH WIND       PRES   REMARKS
LAWRENCEBURG   PTCLDY    81  79  94 W7        29.94  HX  90
LEWISBURG      CLOUDY    83  75  76 W6        29.92S HX  90
FAYETTEVILLE   MOCLDY    79  73  83 W5        29.96R
TULLAHOMA      PTCLDY    81  73  78 SW9       29.95F
WINCHESTER     PTCLDY    82  73  74 W7        29.95R
MCMINNVILLE      N/A     79  72  78 NW16      29.93F
COLUMBIA       CLEAR     82  79  89 W8        29.91S HX  93
SHELBYVILLE    PTCLDY    82  77  83 SW9       29.93F HX  91
$$

TNZ017-018-042-046-047-280500-
NORTHEAST TENNESSEE

CITY           SKY/WX    TMP DP  RH WIND       PRES   REMARKS
TRI CITIES     TSTM      68  65  90 CALM      29.93F
ELIZABETHTON   HVY RAIN  64  64 100 VRB7      29.93F
$$

TNZ012-013-036-069-073-074-280500-
CENTRAL EAST TENNESSEE

CITY           SKY/WX    TMP DP  RH WIND       PRES   REMARKS
KNOXVILLE      CLOUDY    80  71  74 SW13      29.88R
OAK RIDGE      HVY RAIN  69  68  96 N8        29.94R VSB 1/2
GATLINBURG     MOCLDY    72  66  83 S6        29.86F
MORRISTOWN     CLOUDY    66  66 100 NW8       29.93F
$$

TNZ083-085-099-280500-
SOUTHEAST TENNESSEE

CITY           SKY/WX    TMP DP  RH WIND       PRES   REMARKS
CHATTANOOGA    MOCLDY    85  71  63 W9G18     29.92S HX  90
$$

SKY/WX REPORTED AS FAIR MEANS FEW OR NO CLOUDS BELOW
12 THOUSAND FEET.





U.S. Dept. of Commerce
NOAA National Weather Service
1325 East West Highway
Silver Spring, MD 20910
E-mail: w-nws.webmaster@noaa.gov
Page last modified: May 16, 2007
NATIONAL WEATHER SERVICE: for Safety, for Work, for Fun - FOR LIFE